Clarinda, IA

6:59 PM CST on January 21, 2017 (GMT -0600)
Clarinda

Weather History for KICL - February, 2013

Change the Weather History Date:

Sunday, February 3, 2013

  Actual Average Record
Temperature  
Mean Temperature 29 °F -  
Max Temperature 37 °F 35 °F 57 °F (1999)
Min Temperature 21 °F 17 °F -13 °F (2011)
Degree Days  
Heating Degree Days 36    
Moisture  
Dew Point 19 °F    
Average Humidity 64    
Maximum Humidity 86    
Minimum Humidity 44    
Precipitation  
Precipitation 0.00 in - - ()
Sea Level Pressure  
Sea Level Pressure 30.07 in    
Wind  
Wind Speed 10 mph (SW)    
Max Wind Speed 18 mph    
Max Gust Speed 25 mph    
Visibility 10 miles    
Events      
Averages and records for this station are not official NWS values.
T = Trace of Precipitation, MM = Missing Value Source: NWS Daily Summary

Daily Weather History Graph

Daily Weather History Graph

Search for Another Location

Airport or City:

Trip Planner

Search our weather history database for the weather conditions in past years. The results will help you decide how hot, cold, wet, or windy it might be!

Date:

Astronomy

Feb. 03, 2013 Rise Set
Actual Time 7:27 AM CST 5:40 PM CST
Civil Twilight 6:59 AM CST 6:09 PM CST
Nautical Twilight 6:26 AM CST 6:42 PM CST
Astronomical Twilight 5:54 AM CST 7:14 PM CST
Moon 12:56 AM CST (2/3) 11:18 AM CST (2/3)
Length of Visible Light 11h 10m
Length of Day
10h 12m
Waning Gibbous, 48% of the Moon is Illuminated
Feb 3
Waning Gibbous
Feb 10
New
Feb 17
First Quarter
Feb 25
Full
Mar 4
Last Quarter

Hourly Weather History & Observations

Time (CST) Temp. Windchill Dew Point Humidity Pressure Visibility Wind Dir Wind Speed Gust Speed Precip Events Conditions
12:15 AM 35.6 °F 25.2 °F 24.8 °F 65% 30.09 in 10.0 mi NW 18.4 mph 23.0 mph N/A   Scattered Clouds
12:35 AM 33.8 °F 23.9 °F 24.8 °F 70% 30.10 in 10.0 mi NW 15.0 mph 19.6 mph N/A   Clear
12:55 AM 33.8 °F 24.8 °F 24.8 °F 70% 30.11 in 10.0 mi NW 12.7 mph 18.4 mph N/A   Clear
1:15 AM 32.0 °F 20.8 °F 23.0 °F 69% 30.13 in 10.0 mi NNW 17.3 mph 24.2 mph N/A   Clear
1:35 AM 30.2 °F 20.2 °F 21.2 °F 69% 30.14 in 10.0 mi NW 12.7 mph 21.9 mph N/A   Clear
1:55 AM 30.2 °F 19.8 °F 21.2 °F 69% 30.14 in 10.0 mi NW 13.8 mph 20.7 mph N/A   Clear
2:15 AM 30.2 °F 20.2 °F 19.4 °F 64% 30.15 in 10.0 mi NW 12.7 mph 21.9 mph N/A   Clear
2:35 AM 28.4 °F 18.5 °F 19.4 °F 69% 30.16 in 10.0 mi NW 11.5 mph 21.9 mph N/A   Clear
2:55 AM 28.4 °F 17.0 °F 19.4 °F 69% 30.17 in 10.0 mi NW 15.0 mph 20.7 mph N/A   Clear
3:15 AM 28.4 °F 19.1 °F 19.4 °F 69% 30.16 in 10.0 mi NW 10.4 mph 20.7 mph N/A   Clear
3:35 AM 26.6 °F 18.2 °F 19.4 °F 74% 30.15 in 10.0 mi NW 8.1 mph 16.1 mph N/A   Clear
3:55 AM 26.6 °F 17.5 °F 19.4 °F 74% 30.16 in 10.0 mi NW 9.2 mph - N/A   Clear
4:15 AM 26.6 °F 16.8 °F 19.4 °F 74% 30.17 in 10.0 mi NW 10.4 mph - N/A   Clear
4:35 AM 26.6 °F 14.7 °F 15.8 °F 64% 30.17 in 10.0 mi NW 15.0 mph 25.3 mph N/A   Clear
4:55 AM 26.6 °F 15.7 °F 15.8 °F 64% 30.17 in 10.0 mi NNW 12.7 mph 19.6 mph N/A   Clear
5:15 AM 26.6 °F 14.7 °F 15.8 °F 64% 30.18 in 10.0 mi NW 15.0 mph 19.6 mph N/A   Clear
5:35 AM 24.8 °F 13.4 °F 15.8 °F 69% 30.19 in 10.0 mi NW 12.7 mph 19.6 mph N/A   Clear
6:15 AM 24.8 °F 12.9 °F 15.8 °F 69% 30.20 in 10.0 mi NW 13.8 mph 19.6 mph N/A   Clear
6:35 AM 23.0 °F 11.7 °F 15.8 °F 74% 30.20 in 10.0 mi NW 11.5 mph - N/A   Clear
6:55 AM 23.0 °F 13.1 °F 15.8 °F 74% 30.20 in 10.0 mi NW 9.2 mph 16.1 mph N/A   Clear
7:15 AM 23.0 °F 15.8 °F 14.0 °F 68% 30.21 in 10.0 mi NNW 5.8 mph - N/A   Clear
7:35 AM 21.2 °F 14.9 °F 14.0 °F 74% 30.21 in 10.0 mi North 4.6 mph - N/A   Clear
7:55 AM 21.2 °F 13.6 °F 14.0 °F 74% 30.21 in 10.0 mi NW 5.8 mph - N/A   Clear
8:15 AM 21.2 °F 13.6 °F 14.0 °F 74% 30.22 in 10.0 mi WNW 5.8 mph - N/A   Clear
8:35 AM 23.0 °F - 12.2 °F 63% 30.23 in 10.0 mi Calm Calm - N/A   Clear
8:55 AM 24.8 °F 20.5 °F 12.2 °F 59% 30.22 in 10.0 mi West 3.5 mph - N/A   Clear
9:15 AM 24.8 °F 17.9 °F 12.2 °F 59% 30.22 in 10.0 mi West 5.8 mph - N/A   Clear
9:35 AM 26.6 °F - 12.2 °F 55% 30.21 in 10.0 mi Calm Calm - N/A   Scattered Clouds
9:55 AM 26.6 °F 20.0 °F 14.0 °F 59% 30.21 in 10.0 mi West 5.8 mph - N/A   Mostly Cloudy
10:15 AM 28.4 °F 23.3 °F 14.0 °F 55% 30.21 in 10.0 mi West 4.6 mph - N/A   Scattered Clouds
10:35 AM 28.4 °F - 12.2 °F 51% 30.20 in 10.0 mi Calm Calm - N/A   Clear
10:55 AM 28.4 °F 24.6 °F 12.2 °F 51% 30.19 in 10.0 mi South 3.5 mph - N/A   Clear
11:15 AM 30.2 °F - 12.2 °F 47% 30.19 in 10.0 mi Calm Calm - N/A   Clear
11:35 AM 30.2 °F 25.4 °F 14.0 °F 51% 30.17 in 10.0 mi South 4.6 mph - N/A   Clear
11:55 AM 30.2 °F 24.3 °F 14.0 °F 51% 30.16 in 10.0 mi South 5.8 mph - N/A   Clear
12:15 PM 32.0 °F 27.5 °F 12.2 °F 44% 30.14 in 10.0 mi South 4.6 mph - N/A   Clear
12:35 PM 32.0 °F 26.4 °F 15.8 °F 51% 30.13 in 10.0 mi SSE 5.8 mph - N/A   Clear
12:55 PM 33.8 °F 27.0 °F 15.8 °F 48% 30.12 in 10.0 mi South 8.1 mph - N/A   Clear
1:15 PM 33.8 °F 27.0 °F 17.6 °F 52% 30.11 in 10.0 mi South 8.1 mph - N/A   Clear
1:35 PM 33.8 °F 26.4 °F 17.6 °F 52% 30.10 in 10.0 mi South 9.2 mph - N/A   Clear
1:55 PM 35.6 °F 28.0 °F 17.6 °F 48% 30.08 in 10.0 mi South 10.4 mph - N/A   Clear
2:15 PM 35.6 °F 27.5 °F 17.6 °F 48% 30.07 in 10.0 mi South 11.5 mph - N/A   Clear
2:35 PM 35.6 °F 27.1 °F 17.6 °F 48% 30.05 in 10.0 mi South 12.7 mph - N/A   Clear
2:55 PM 35.6 °F 27.5 °F 19.4 °F 52% 30.04 in 10.0 mi South 11.5 mph - N/A   Clear
3:15 PM 35.6 °F 28.0 °F 19.4 °F 52% 30.03 in 10.0 mi South 10.4 mph - N/A   Clear
3:35 PM 37.4 °F 29.8 °F 19.4 °F 48% 30.02 in 10.0 mi South 11.5 mph - N/A   Clear
3:55 PM 37.4 °F 31.4 °F 21.2 °F 52% 30.00 in 10.0 mi South 8.1 mph - N/A   Clear
4:15 PM 37.4 °F 30.8 °F 21.2 °F 52% 29.99 in 10.0 mi South 9.2 mph - N/A   Clear
4:35 PM 37.4 °F 31.4 °F 23.0 °F 56% 29.97 in 10.0 mi South 8.1 mph - N/A   Clear
4:55 PM 35.6 °F 29.2 °F 21.2 °F 56% 29.96 in 10.0 mi South 8.1 mph - N/A   Clear
5:15 PM 35.6 °F 29.9 °F 23.0 °F 60% 29.95 in 10.0 mi SSE 6.9 mph - N/A   Clear
5:35 PM 33.8 °F 28.6 °F 23.0 °F 65% 29.94 in 10.0 mi South 5.8 mph - N/A   Clear
5:55 PM 33.8 °F 28.6 °F 23.0 °F 65% 29.93 in 10.0 mi South 5.8 mph - N/A   Clear
6:15 PM 32.0 °F 26.4 °F 23.0 °F 69% 29.93 in 10.0 mi South 5.8 mph - N/A   Clear
6:35 PM 32.0 °F 28.7 °F 23.0 °F 69% 29.93 in 10.0 mi South 3.5 mph - N/A   Clear
6:55 PM 32.0 °F 27.5 °F 21.2 °F 64% 29.92 in 10.0 mi South 4.6 mph - N/A   Clear
7:15 PM 32.0 °F 26.4 °F 21.2 °F 64% 29.92 in 10.0 mi South 5.8 mph - N/A   Clear
7:55 PM 30.2 °F 26.7 °F 21.2 °F 69% 29.91 in 10.0 mi South 3.5 mph - N/A   Clear
8:15 PM 30.2 °F - 23.0 °F 75% 29.90 in 10.0 mi Calm Calm - N/A   Clear
8:35 PM 30.2 °F - 21.2 °F 69% 29.89 in 10.0 mi Calm Calm - N/A   Clear
8:55 PM 30.2 °F - 21.2 °F 69% 29.89 in 10.0 mi Calm Calm - N/A   Clear
9:15 PM 30.2 °F - 23.0 °F 75% 29.88 in 10.0 mi Calm Calm - N/A   Clear
9:35 PM 26.6 °F - 21.2 °F 80% 29.87 in 10.0 mi Calm Calm - N/A   Clear
9:55 PM 26.6 °F - 23.0 °F 86% 29.87 in 10.0 mi Calm Calm - N/A   Clear
10:15 PM 28.4 °F - 21.2 °F 74% 29.86 in 10.0 mi Calm Calm - N/A   Clear
10:35 PM 28.4 °F 23.3 °F 21.2 °F 74% 29.85 in 10.0 mi South 4.6 mph - N/A   Clear
10:55 PM 28.4 °F 23.3 °F 21.2 °F 74% 29.84 in 10.0 mi South 4.6 mph - N/A   Clear
11:15 PM 30.2 °F - 21.2 °F 69% 29.83 in 10.0 mi Calm Calm - N/A   Clear
11:35 PM 30.2 °F 26.7 °F 23.0 °F 75% 29.82 in 10.0 mi South 3.5 mph - N/A   Clear
11:55 PM 30.2 °F 26.7 °F 23.0 °F 75% 29.81 in 10.0 mi South 3.5 mph - N/A   Clear